Weather History for Charlottetown, PE

Change the Weather History Date:

Thursday, November 7, 2013

  Actual Average Record
Temperature  
Mean Temperature 50 °F -  
Max Temperature 56 °F 40 °F 60 °F (2008)
Min Temperature 43 °F 27 °F 18 °F (2012)
Degree Days  
Heating Degree Days 16    
Moisture  
Dew Point 50 °F    
Average Humidity 89    
Maximum Humidity 100    
Minimum Humidity 75    
Precipitation  
Precipitation 0.24 in 0.16 in - ()
Sea Level Pressure  
Sea Level Pressure 29.71 in    
Wind  
Wind Speed 16 mph ()    
Max Wind Speed 25 mph    
Max Gust Speed 33 mph    
Visibility 11.1 miles    
Events Rain    
Averages and records for this station are not official NWS values.
T = Trace of Precipitation, MM = Missing Value Source: Averaged Metar Reports

Daily Weather History Graph

Daily Weather History Graph

Search for Another Location

Airport:

Trip Planner

Search our weather history database for the weather conditions in past years. The results will help you decide how hot, cold, wet, or windy it might be!

Date:

Astronomy

Nov. 07, 2013 Rise Set
Actual Time 7:02 AM AST 4:49 PM AST
Civil Twilight 6:30 AM AST 5:21 PM AST
Nautical Twilight 5:54 AM AST 5:56 PM AST
Astronomical Twilight 5:19 AM AST 6:32 PM AST
Moon 11:10 AM AST (11/7) 8:53 PM AST (11/7)
Length of Visible Light 10h 50m
Length of Day
9h 46m
Waxing Crescent, 22% of the Moon is Illuminated
Nov 7
Waxing Crescent
Nov 10
First Quarter
Nov 17
Full
Nov 25
Last Quarter
Dec 2
New

Hourly Weather History & Observations

Time (AST) Temp. Windchill Dew Point Humidity Pressure Visibility Wind Dir Wind Speed Gust Speed Precip Events Conditions
12:00 AM 46.4 °F 39.8 °F 42.8 °F 87% 30.06 in 15.0 mi SSW 16.1 mph - N/A   Mostly Cloudy
1:00 AM 46.4 °F 39.0 °F 42.8 °F 87% 30.00 in 15.0 mi South 19.6 mph 27.6 mph N/A   Mostly Cloudy
2:00 AM 47 °F - 44 °F 83% 29.98 in 15 mi South 19.6 mph - -   Partly Cloudy
2:00 AM 48.2 °F - 42.8 °F 82% 29.98 in 15.0 mi South 19.6 mph 27.6 mph N/A   Mostly Cloudy
3:00 AM 48.2 °F - 44.6 °F 87% 29.97 in 15.0 mi SSW 18.4 mph 24.2 mph N/A   Overcast
4:00 AM 50.0 °F - 44.6 °F 82% 29.88 in 15.0 mi South 19.6 mph 28.8 mph N/A   Mostly Cloudy
5:00 AM 50.0 °F - 46.4 °F 87% 29.86 in 15.0 mi South 20.7 mph 27.6 mph N/A   Mostly Cloudy
6:00 AM 51.8 °F - 46.4 °F 82% 29.83 in 15.0 mi SSW 18.4 mph 27.6 mph N/A   Mostly Cloudy
7:00 AM 51.8 °F - 46.4 °F 82% 29.81 in 15.0 mi SSW 19.6 mph 27.6 mph N/A   Overcast
8:00 AM 53 °F - 47 °F 75% 29.81 in 15 mi SSW 18.4 mph - -   Overcast
8:00 AM 51.8 °F - 48.2 °F 88% 29.81 in 15.0 mi SSW 20.7 mph - N/A   Overcast
9:00 AM 53.6 °F - 48.2 °F 82% 29.78 in 15.0 mi SSW 19.6 mph - N/A   Overcast
10:00 AM 55.4 °F - 48.2 °F 77% 29.76 in 15.0 mi SSW 17.3 mph 26.5 mph N/A   Overcast
11:00 AM 55.4 °F - 48.2 °F 77% 29.76 in 15.0 mi SSW 15.0 mph 23.0 mph N/A   Overcast
12:00 PM 55.4 °F - 48.2 °F 77% 29.72 in 15.0 mi SSW 15.0 mph 25.3 mph N/A   Overcast
1:00 PM 57.2 °F - 51.8 °F 82% 29.68 in 15.0 mi SSW 24.2 mph 33.4 mph N/A   Overcast
1:06 PM 57.2 °F - 51.8 °F 82% 29.68 in 15.0 mi SSW 24.2 mph 33.4 mph N/A Rain Light Rain Showers
1:26 PM 55.4 °F - 51.8 °F 88% 29.68 in 4.0 mi SSW 19.6 mph 31.1 mph N/A Rain Light Rain Showers
1:44 PM 55.4 °F - 53.6 °F 94% 29.68 in 2.5 mi SSW 25.3 mph 33.4 mph N/A Rain Light Rain Showers
2:00 PM 55 °F - 54 °F 97% 29.69 in 2 mi SSW 23.0 mph - - Rain Light Rain Showers
2:00 PM 55.4 °F - 53.6 °F 94% 29.69 in 2.0 mi SSW 23.0 mph 32.2 mph N/A Rain Light Rain Showers
2:10 PM 55.4 °F - 53.6 °F 94% 29.69 in 5.0 mi SSW 20.7 mph 29.9 mph N/A Rain Light Rain Showers
2:48 PM 55.4 °F - 53.6 °F 94% 29.66 in 12.0 mi SSW 16.1 mph 23.0 mph N/A Rain Light Rain Showers
3:00 PM 55.4 °F - 53.6 °F 94% 29.65 in 15.0 mi South 16.1 mph 21.9 mph N/A   Overcast
3:09 PM 55.4 °F - 53.6 °F 94% 29.64 in 15.0 mi South 16.1 mph - N/A   Overcast
4:00 PM 55.4 °F - 53.6 °F 94% 29.61 in 15.0 mi SSW 17.3 mph 23.0 mph N/A   Overcast
4:13 PM 55.4 °F - 53.6 °F 94% 29.60 in 12.0 mi South 15.0 mph 20.7 mph N/A Rain Light Rain Showers
5:00 PM 55.4 °F - 53.6 °F 94% 29.58 in 12.0 mi SSW 18.4 mph 25.3 mph N/A Rain Light Rain Showers
6:00 PM 55.4 °F - 53.6 °F 94% 29.54 in 15.0 mi South 15.0 mph 21.9 mph N/A Rain Light Rain Showers
7:00 PM 55.4 °F - 53.6 °F 94% 29.53 in 4.0 mi SSW 15.0 mph 23.0 mph N/A Rain Rain
7:05 PM 55.4 °F - 55.4 °F 100% 29.53 in 3.0 mi SSW 12.7 mph 23.0 mph N/A Rain Heavy Rain
7:20 PM 55.4 °F - 55.4 °F 100% 29.53 in 5.0 mi WSW 15.0 mph 24.2 mph N/A Rain Light Rain
7:33 PM 55.4 °F - 53.6 °F 94% 29.53 in 6.0 mi WSW 15.0 mph 23.0 mph N/A Rain Light Rain
8:00 PM 55 °F - 54 °F 95% 29.55 in 6 mi WSW 12.7 mph - - Rain Light Rain
8:00 PM 55.4 °F - 53.6 °F 94% 29.54 in 6.0 mi WSW 11.5 mph 21.9 mph N/A Rain Light Rain
9:00 PM 51.8 °F - 48.2 °F 88% 29.56 in 6.0 mi West 12.7 mph 26.5 mph N/A Rain Light Rain
9:15 PM 50.0 °F - 46.4 °F 87% 29.56 in 10.0 mi WNW 15.0 mph 21.9 mph N/A Rain Light Rain
10:00 PM 48.2 °F - 46.4 °F 93% 29.57 in 10.0 mi West 8.1 mph - N/A Rain Light Rain
11:00 PM 48.2 °F - 46.4 °F 93% 29.55 in 12.0 mi West 6.9 mph - N/A Rain Light Rain